Location: Karabük
(36.5359°N, 30.1917°E)
Time: 21:07:21
(UTC+00:00)

Daily predictions for brighter satellites

Satellite Brightness Start Highest point End
(mag) Time Altitude Azimuth Time Altitude Azimuth Time Altitude Azimuth
Atlas Centaur 2 3.4 17:42:00 10° W 17:48:58 48° S 17:56:50 10° ESE
Cosmos 1933 Rocket 4.1 17:44:55 10° N 17:49:10 43° E 17:53:23 10° SSE
Cosmos 1980 Rocket 3.3 17:47:30 10° NW 17:52:50 43° WSW 17:58:07 10° S
Tiangong -0.7 17:51:11 10° W 17:53:56 28° SSW 17:56:41 10° SSE
SJ 16-02 3.0 17:51:38 10° SE 17:54:09 15° E 17:56:41 10° ENE
Cosmos 2322 Rocket 3.4 17:52:33 10° N 17:57:21 27° ENE 18:02:08 10° ESE
CZ-4 R/B 2.7 17:56:05 10° S 17:59:50 41° W 18:03:40 10° NNW
CZ-4C R/B 4.3 17:56:41 10° NE 18:00:17 29° E 18:03:48 10° SSE
SPOT 5 4.1 17:56:58 10° ESE 18:00:19 22° ENE 18:03:43 10° NNE
Feng Yun 1-1 Rocket 4.5 18:01:22 10° S 18:07:12 80° WSW 18:12:56 10° NNW
Terra 3.6 18:08:06 10° ESE 18:10:59 16° ENE 18:13:52 10° NNE
BlueWalker 3 1.8 18:09:08 10° SW 18:12:51 66° SE 18:16:34 10° NE
Cosmos 540 Rocket 3.8 18:08:30 10° NNW 18:13:36 67° WSW 18:18:39 10° S
Cosmos 2278 3.7 18:09:35 10° NNW 18:15:20 81° ENE 18:20:55 10° SSE
Cosmos 2219 Rocket 4.1 18:12:57 10° NNE 18:16:20 16° NE 18:19:42 10° E
Cosmos 468 Rocket 4.2 18:11:11 10° NNW 18:16:21 71° WSW 18:21:26 10° S
USA 186 3.7 18:14:23 10° SSW 18:17:21 30° W 18:20:19 10° NNW
Resurs 01 Rocket 2.4 18:16:57 10° S 18:21:14 51° W 18:25:32 10° NNW
RESURS DK-1 2.6 18:20:29 10° NNW 18:24:29 53° ENE 18:27:21 17° SE
ATLAS CENTAUR R/B 3.0 18:22:24 10° WSW 18:25:33 32° NW 18:28:46 10° N
SeaSat 1 4.4 18:22:39 10° E 18:25:43 17° NE 18:28:45 10° NNE
Cosmos 1470 3.5 18:22:15 10° NNW 18:25:51 50° W 18:29:26 10° S
Cosmos 1400 Rocket 2.7 18:26:28 10° S 18:30:20 85° W 18:34:11 10° N
Cosmos 1417 Rocket 4.4 18:25:02 10° N 18:31:11 74° E 18:37:05 11° SSE
In-Cosmos 22 4.4 18:27:11 10° SSW 18:32:47 73° W 18:38:17 10° N
CZ-4B R/B 4.4 18:29:25 10° SSW 18:34:17 37° W 18:39:14 10° NNW
Cosmos 968 Rocket 3.4 18:29:41 10° S 18:34:46 69° ESE 18:39:55 10° NNE
Cosmos 1733 Rocket 4.1 18:34:16 10° NNE 18:38:11 30° ENE 18:40:12 21° ESE
Cosmos 1850 Rocket 4.2 18:33:10 10° SSW 18:38:23 74° WNW 18:43:36 10° NNE
Cosmos 2237 4.4 18:32:42 10° NNW 18:38:24 73° WSW 18:43:19 14° SSE
BREEZE-M DEB (TANK) 4.4 18:35:20 10° W 18:38:25 38° NNW 18:46:50 10° NE
Meteor 1-4 Rocket 3.4 18:42:25 22° E 18:42:25 22° E 18:44:45 10° NE
CZ-4C R/B 3.6 18:44:20 12° E 18:44:20 12° E 18:45:16 10° ENE
IRS-1A Rocket 4.4 18:40:04 19° SE 18:43:58 56° ENE 18:49:21 10° N
Okean 3 4.2 18:42:12 23° SE 18:43:58 33° E 18:47:43 10° NNE
Cosmos 2360 Rocket 2.6 18:39:06 10° N 18:44:37 51° ENE 18:48:05 22° SE
Meteor 1-21 4.4 18:41:17 12° S 18:46:35 58° E 18:52:17 10° NNE
USA 234 3.2 18:41:13 10° NE 18:47:43 64° SE 18:54:09 10° SSW
MetOp-B 4.1 18:45:48 18° SSE 18:49:51 80° ENE 18:55:13 10° N
Cosmos 1953 4.4 18:50:27 10° NE 18:52:07 12° ENE 18:52:25 12° ENE
Cosmos 1241 Rocket 4.4 18:48:14 10° SSW 18:54:24 87° WNW 19:00:40 10° NNE
Meteor 1-12 Rocket 4.3 18:48:36 10° N 18:54:38 76° E 18:58:48 21° SSE
Cosmos 1300 2.5 18:53:07 10° N 18:56:38 60° E 18:57:50 36° SSE
Cosmos 1315 Rocket 3.6 18:56:52 29° ESE 18:57:31 31° E 19:01:03 10° NNE
SL-16 R/B 2.8 18:56:32 10° NNW 19:02:01 52° WSW 19:06:12 17° S
Cosmos 807 4.0 19:03:23 42° S 19:04:18 79° E 19:07:15 10° N
Cosmos 1814 Rocket 4.5 18:59:39 10° N 19:04:47 47° ENE 19:07:06 29° SE
Okean-O 3.7 19:03:04 13° SSW 19:06:37 41° W 19:10:47 10° NNW
ASTRO E2 3.4 19:04:25 10° WSW 19:07:12 30° SSW 19:07:12 30° SSW
Meteor 2-10 Rocket 3.6 19:02:07 10° N 19:07:33 81° W 19:10:49 23° S
ERS-1 Rocket 2.9 19:05:45 28° SSE 19:08:25 78° ENE 19:13:27 10° N
S3M 4.4 19:04:06 10° NNW 19:10:20 64° W 19:15:33 15° S
Okean 2 3.9 19:10:02 36° ESE 19:10:29 38° E 19:14:13 10° NNE
ARGOS Delta rocket 4.3 19:09:28 19° SSW 19:12:26 51° W 19:16:43 10° NNW
Cosmos 1356 Rocket 4.3 19:09:33 10° SSW 19:13:37 49° W 19:17:42 10° N
SPOT 3 Rocket 3.8 19:12:11 32° SE 19:14:17 53° ENE 19:19:19 10° N
Cosmos 1346 Rocket 2.6 19:10:44 10° N 19:14:35 89° WSW 19:15:44 44° S
Cosmos 2333 Rocket 2.2 19:09:04 10° NNW 19:14:51 84° ENE 19:17:39 32° SSE
USA 245 3.3 19:14:16 43° SSE 19:15:28 88° E 19:20:02 10° NNW
SL-14 R/B 4.4 19:12:46 11° SSW 19:16:08 39° W 19:19:43 10° N
Okean O Rocket 4.2 19:17:08 10° SW 19:19:41 15° W 19:22:13 10° WNW
Landsat 4 3.6 19:21:21 52° E 19:21:29 52° ENE 19:24:50 10° N
Cosmos 2228 Rocket 4.1 19:17:47 10° SSW 19:22:06 45° W 19:26:30 10° N
Aureole 3 3.6 19:21:28 32° SSW 19:23:21 80° W 19:28:19 10° N
MOS 1 Rocket 3.5 19:23:23 35° SSE 19:25:43 81° ENE 19:31:00 10° N
SJ 16-02 2.7 19:28:07 10° SW 19:32:06 37° WNW 19:36:08 10° N
Spot 2 Rocket 3.4 19:31:03 39° S 19:33:00 83° WSW 19:38:06 10° NNW
Cosmos 1703 Rocket 3.8 19:32:57 47° ESE 19:33:16 48° E 19:37:33 10° NNE
ATLAS 2AS CENTAUR R/B 2.6 19:27:46 10° NW 19:34:31 79° WSW 19:37:21 37° SSE
Cosmos 1244 Rocket 4.4 19:32:14 30° S 19:35:30 80° E 19:41:49 10° N
Meteor 1-16 Rocket 4.3 19:29:33 10° N 19:35:30 78° E 19:37:41 41° SSE
SL-4 R/B 4.4 19:34:27 10° NNW 19:37:01 16° NNE 19:39:35 10° ENE
Cosmos 1242 Rocket 4.1 19:39:07 20° NNE 19:39:07 20° NNE 19:40:10 10° NNE
Atlas Centaur 2 3.9 19:31:12 10° W 19:37:47 29° SSW 19:39:42 26° S
SPOT 5 4.3 19:35:44 16° SW 19:38:11 27° W 19:41:55 10° NW
SL-24 R/B - RUBIN 2 4.4 19:31:53 10° NNW 19:38:23 71° ENE 19:40:30 42° SE
Cosmos 1455 3.0 19:35:35 10° N 19:38:17 36° NE 19:38:17 36° NE
Cosmos 2333 4.2 19:33:26 10° NNW 19:39:13 80° WSW 19:41:18 42° S
Cosmos 2322 Rocket 3.2 19:36:12 10° NW 19:41:26 38° WSW 19:44:11 24° SSW
Nadezhda 2 Rocket 4.5 19:38:49 31° S 19:42:08 85° E 19:48:35 10° N
Cosmos 2297 Rocket 3.2 19:43:34 29° E 19:43:34 29° E 19:47:52 10° NE
DNEPR-1 R/B 4.1 19:37:08 10° NNW 19:43:21 80° ENE 19:44:44 51° SE
Terra 2.5 19:46:30 33° SSW 19:48:08 46° W 19:52:41 10° NNW
Cosmos 371 Rocket 3.9 19:51:25 38° E 19:51:25 38° E 19:55:16 10° NNE
Okean 1-7 3.3 19:50:01 44° SW 19:51:08 61° W 19:55:24 10° N
SL-08 R/B 4.4 19:53:35 40° S 19:55:58 88° W 20:02:06 10° N
Cosmos 839 Rocket 3.9 19:49:47 10° NNW 19:56:18 87° WSW 19:58:05 49° SSE
Ariane Rocket 3.6 19:56:35 37° SSW 19:58:09 50° W 20:03:06 10° NNW
Cosmos 2219 Rocket 2.2 19:55:10 10° NNW 20:00:50 72° WSW 20:02:09 52° S
Cosmos 1486 Rocket 3.9 20:02:12 64° SE 20:02:29 65° ESE 20:07:37 10° NNE
SeaSat 1 2.5 20:01:53 56° SSW 20:02:39 64° WSW 20:07:31 10° NNW
COSMOS 2455 2.8 20:03:28 34° SSW 20:06:14 87° WNW 20:12:18 10° NNE
Cosmos 2242 Rocket 4.4 20:11:53 40° ENE 20:11:53 40° ENE 20:15:25 10° NNE
MetOp-A 3.9 20:11:05 67° S 20:11:48 84° WSW 20:17:04 10° NNW
CENTAUR R/B 3.6 20:13:44 24° E 20:13:44 24° E 20:17:10 10° NE
Cosmos 158 Rocket 4.1 20:09:39 10° N 20:14:48 56° ENE 20:15:03 56° E
COSMOS 2428 2.6 20:13:16 10° NNW 20:18:58 72° ENE 20:19:39 64° ESE
H-2A R/B 4.4 20:21:29 20° ENE 20:21:29 20° ENE 20:24:08 10° NNE
Cosmos 1953 3.6 20:24:34 10° NNW 20:27:32 32° WNW 20:27:32 32° WNW
Cosmos 2360 Rocket 4.0 20:24:14 10° NW 20:28:07 19° W 20:29:51 17° WSW
Cosmos 304 Rocket 3.8 20:28:43 69° NNE 20:28:43 69° NNE 20:32:56 10° NNE
CZ-4C R/B 2.5 20:29:20 37° W 20:30:36 47° NW 20:35:36 10° NNE
ARIANE 5 R/B 3.2 20:36:04 49° NNE 20:36:04 49° NNE 20:39:32 10° N
Cosmos 1782 Rocket 4.0 20:33:53 10° N 20:37:26 58° NNW 20:37:26 58° NNW
Meteor 2-5 Rocket 3.8 20:40:32 64° E 20:40:32 64° E 20:46:18 10° NNE
Cosmos 1745 Rocket 4.4 20:44:44 45° SW 20:46:25 58° W 20:52:41 10° N
GP-B 3.9 20:44:10 10° N 20:48:00 45° WNW 20:48:00 45° WNW
Cosmos 1300 Rocket 4.2 20:44:26 10° NNW 20:47:47 51° NNW 20:47:47 51° NNW
Cosmos 773 Rocket 4.1 20:50:32 10° NNW 20:55:14 66° NE 20:55:14 66° NE
Nadezhda 1 Rocket 4.3 20:52:31 10° NNW 20:58:32 53° W 20:59:21 50° WSW
USA 281 3.1 20:58:25 64° ESE 20:59:22 74° ENE 21:05:56 10° NNW
SL-16 R/B 4.1 20:59:31 10° N 21:03:35 20° NE 21:05:09 18° ENE
NOSS 0 Rocket 3.8 20:57:36 10° NNW 21:03:50 75° WSW 21:04:02 75° SW
Cosmos 2227 Rocket 2.2 21:07:45 74° NE 21:07:45 74° NE 21:12:57 10° NNE
Cosmos 2237 Rocket 2.2 21:02:06 10° NNW 21:07:33 70° NE 21:07:33 70° NE
NOSS 3-2 (A) 4.0 21:13:40 37° ENE 21:13:40 37° ENE 21:17:26 10° NE
Cosmos 1777 Rocket 4.5 21:12:37 54° WNW 21:12:42 54° WNW 21:17:52 10° N
SL-4 R/B 3.8 21:12:12 10° NW 21:14:18 29° NW 21:14:18 29° NW
Cosmos 2074 Rocket 4.2 21:17:30 54° E 21:17:30 54° E 21:23:19 10° NNE
Cosmos 2181 Rocket 3.9 21:13:20 10° N 21:19:28 69° E 21:19:28 69° E
CZ-3 Stage 3 4.0 20:49:27 10° W 21:19:40 50° SW 21:21:05 48° SSW
Cosmos 1980 3.7 21:16:01 10° NNW 21:21:13 74° NW 21:21:13 74° NW
ALOS 2 3.7 21:23:07 42° NNE 21:23:07 42° NNE 21:26:10 10° N
Okean 2 Rocket 4.3 21:17:46 10° N 21:20:49 39° NNE 21:20:49 39° NNE
Cosmos 2297 Rocket 3.5 21:25:19 29° W 21:26:55 34° WNW 21:32:01 10° N
Meteor 1-24 Rocket 4.4 21:30:36 45° W 21:30:55 45° WNW 21:36:17 10° N
Cosmos 2219 3.4 21:37:29 63° NE 21:37:29 63° NE 21:42:14 10° NNE
Cosmos 1295 Rocket 4.4 21:40:51 73° ENE 21:40:51 73° ENE 21:46:42 10° N
Cosmos 2263 Rocket 2.5 21:53:17 59° NE 21:53:17 59° NE 21:57:52 10° NNE
Cosmos 1898 Rocket 4.3 21:56:17 45° NE 21:56:17 45° NE 22:00:03 10° NNE
Nadezhda 3 Rocket 4.0 21:54:17 10° N 22:00:30 66° E 22:00:30 66° E
CENTAUR R/B 3.3 22:00:49 35° W 22:02:15 40° NW 22:08:31 10° NNE
Meteor 1-21 Rocket 4.4 22:04:24 69° NE 22:04:24 69° NE 22:09:29 10° NNE
Cosmos 2184 Rocket 4.2 22:06:55 61° W 22:07:05 61° W 22:13:24 10° N
Okean 1 Rocket 4.5 22:05:14 10° NNW 22:07:53 35° NNW 22:07:53 35° NNW
H-2A R/B 3.5 22:07:16 10° N 22:09:44 34° N 22:09:44 34° N
GEOS 3 Rocket 4.3 22:12:14 10° NE 22:16:00 46° ENE 22:16:00 46° ENE
Cosmos 2327 Rocket 4.3 22:22:36 84° NE 22:22:36 84° NE 22:28:34 10° N
Cosmos 2154 Rocket 4.3 22:24:58 53° W 22:25:06 53° W 22:31:14 10° N
Cosmos 1975 Rocket 4.3 22:27:42 40° NNE 22:27:42 40° NNE 22:30:33 10° N
USA 238 DEB 4.0 22:28:32 46° E 22:28:32 46° E 22:34:05 10° NE
USA 238 4.0 22:28:35 45° E 22:28:35 45° E 22:34:07 10° NE
In-Cosmos 22 Rocket 4.3 22:30:37 79° NNE 22:30:37 79° NNE 22:36:07 10° N
SL-8 Rocket 4.1 22:32:37 60° E 22:32:45 61° E 22:38:49 10° NNE
Cosmos 1680 Rocket 4.5 22:29:25 10° N 22:34:17 39° ENE 22:34:35 38° ENE
Cosmos 1455 Rocket 4.3 22:37:33 10° N 22:40:26 39° NNW 22:40:26 39° NNW
Cosmos 962 Rocket 4.4 22:43:19 80° WSW 22:43:30 81° W 22:49:51 10° N
SL-16 R/B 2.7 22:42:29 10° NNW 22:46:58 48° WNW 22:46:58 48° WNW
Cosmos 2237 Rocket 4.5 22:48:33 10° WNW 22:49:21 12° WNW 22:49:21 12° WNW
Resurs 1-4 Rocket 3.9 22:52:39 10° NE 22:56:34 21° E 22:57:05 20° ESE
Cosmos 1943 3.8 22:52:23 10° N 22:57:50 50° ENE 22:58:53 45° E
Cosmos 1818 3.6 22:54:40 10° NNW 22:59:47 77° N 22:59:47 77° N
NOSS 3-2 (C) 4.0 23:11:04 38° WNW 23:11:47 39° NW 23:17:19 10° NNE
Cosmos 864 Rocket 4.4 23:11:45 71° WSW 23:12:16 75° W 23:18:36 10° N
MOZ.5/SAFIR/RUBIN 5/SL-8 4.3 23:20:13 52° E 23:20:23 53° ENE 23:24:53 10° N
Cosmos 2341 Rocket 4.3 23:20:22 49° W 23:20:48 50° W 23:26:50 10° N
Cosmos 2228 3.6 23:19:51 10° N 23:23:13 54° N 23:23:13 54° N
IDEFIX/ARIANE 42P 2.8 23:22:00 10° NNE 23:27:08 56° E 23:27:30 55° ESE
Cosmos 2263 Rocket 4.3 23:34:56 13° WNW 23:36:47 15° NW 23:39:57 10° NNW
Cosmos 1844 3.6 23:37:05 72° SSW 23:37:43 87° WNW 23:43:33 10° NNE
Cosmos 1821 Rocket 3.8 23:37:11 65° SSW 23:38:09 82° W 23:44:20 10° N
Orbus 7S? 4.2 23:40:55 10° NNW 23:43:55 49° NE 23:49:18 10° SE
Cosmos 1867 4.3 23:43:25 38° W 23:44:20 41° NW 23:49:30 10° NNE
COBE Rocket 4.0 23:41:43 10° N 23:46:49 62° WNW 23:47:07 61° W
CZ-2C R/B 3.4 23:45:27 10° NNE 23:50:33 53° E 23:51:32 46° SE
Cosmos 1844 Rocket 2.9 23:52:57 49° W 23:53:48 53° WNW 23:59:15 10° NNE
